User: anonymous   Login
Location: Bullenkuhlen
(53.7689°N, 9.7495°E)
Time: 11:45:21
(UTC+00:00)
Language:

Cosmos 2360 - Orbit

View from above orbital plane
View from above orbital plane
View from above satellite
View from above satellite

Ground track
Ground track

The orbit data is extracted from the following two-line orbital elements,

1 25406U 98045A   20190.91691899 -.00000132 +00000-0 -45030-4 0  9991
2 25406 070.8099 180.5124 0008213 299.9731 060.0573 14.12347293131728
Epoch (UTC): 08 July 2020 22:00:21
Eccentricity: 0.0008213
inclination: 70.8099°
perigee height: 845 km
apogee height: 857 km
right ascension of ascending node: 180.5124°
argument of perigee: 299.9731°
revolutions per day: 14.12347293
mean anomaly at epoch: 60.0573°
orbit number at epoch: 13172

The dashed part of the orbit path shows where the satellite is in the earth's shadow,  

DLR